Theta_e
314 313 312 311 311 311 312 313 313 312 312 312 312 311 312 312 312 312 312 312 312 312 312 312 312 313 312 312 312 313 313 312 312 313 315 316 314 314 314 314 316 317 316 318 318 315 317 318 317 317 316 315 316 317 317 317 319 320 321 322 322 321 321 322 323 323 322 320 318 317 316 315 314 314 314 314 315 314 314 315 314 315 315 315 314 315 315 315
313 313 313 312 311 311 311 312 313 313 312 312 312 311 311 311 311 311 311 311 311 311 312 312 312 312 312 312 312 312 313 312 312 313 316 314 314 314 314 314 316 317 316 318 317 315 320 320 315 315 317 317 316 316 317 318 318 320 322 322 321 321 320 321 321 319 319 318 317 317 315 314 314 313 314 314 314 314 314 314 313 315 314 314 314 313 314 314
313 314 313 312 311 311 311 312 313 313 313 312 312 311 311 311 310 310 310 311 311 311 311 311 312 311 311 312 311 312 312 312 315 316 314 315 317 317 316 315 317 317 316 316 315 315 319 318 313 314 317 317 318 317 317 318 318 319 322 321 320 321 319 318 318 318 317 317 316 316 315 314 313 313 313 313 314 313 313 313 313 314 314 314 314 313 313 313
313 314 313 312 311 310 311 311 311 312 313 313 312 311 310 310 310 309 310 310 310 311 311 311 311 311 311 311 310 311 311 314 319 317 315 316 317 317 316 317 318 316 314 314 316 317 316 314 313 315 315 317 320 316 315 318 319 319 320 320 321 321 319 317 317 317 316 316 315 315 314 314 313 313 312 313 313 313 312 312 313 314 313 313 314 313 312 312
312 313 313 312 311 311 311 311 310 310 311 312 312 311 310 309 309 309 310 310 310 310 310 310 310 310 311 310 310 310 312 317 319 317 316 316 316 317 316 316 316 314 313 314 317 317 314 313 314 316 315 317 319 316 317 318 316 318 318 319 319 319 318 316 317 317 316 315 315 314 314 314 313 312 312 312 312 312 312 312 314 314 314 313 313 313 313 313
311 312 313 312 312 311 311 311 310 310 310 312 312 311 309 309 308 309 310 310 310 310 310 310 310 310 310 309 310 311 315 318 317 316 316 315 317 316 315 314 313 313 313 315 317 315 315 314 314 318 316 316 318 317 318 316 313 315 316 316 317 317 316 315 315 315 315 314 314 314 313 313 312 312 312 312 311 312 311 311 312 312 312 312 312 313 313 313
312 312 313 312 311 310 310 310 310 310 310 311 311 310 309 308 308 309 309 309 309 309 309 309 309 310 310 309 311 313 315 319 315 314 316 315 316 314 313 313 313 314 314 316 317 316 316 316 316 318 316 316 318 317 316 314 313 313 314 314 314 314 314 313 313 313 313 312 312 312 311 312 311 312 311 311 311 311 311 311 311 311 311 310 311 312 311 312
312 312 312 312 311 310 309 310 310 310 310 311 311 309 309 308 308 308 308 308 308 308 308 309 309 309 309 309 313 316 316 318 314 311 315 314 315 313 313 313 313 315 315 315 317 316 317 317 317 317 317 317 316 316 315 314 316 314 314 314 313 314 313 312 313 313 313 312 311 312 312 312 311 312 312 311 312 311 311 311 311 311 310 310 310 311 311 311
311 312 312 311 311 310 309 309 309 310 310 311 311 310 309 309 308 309 308 307 307 307 308 308 309 309 309 308 311 316 318 316 313 314 315 313 314 313 313 313 313 315 314 316 316 315 316 319 320 317 318 319 316 316 316 316 318 316 315 315 315 315 314 314 314 314 314 313 312 313 313 313 312 312 312 312 312 312 312 311 311 311 310 310 310 310 310 310
311 311 311 312 312 311 310 310 309 310 310 311 311 310 310 310 309 309 308 307 306 307 308 308 308 308 308 309 312 316 316 315 316 319 317 315 314 313 314 314 314 314 314 315 315 314 316 319 319 316 317 318 317 317 316 316 318 316 316 316 316 316 315 315 315 314 314 313 313 314 313 313 312 312 313 314 313 312 313 312 312 311 311 310 310 310 310 310
311 311 312 312 312 312 311 310 310 310 311 311 311 311 311 310 310 309 308 307 306 306 308 308 308 307 306 308 312 316 314 315 317 319 319 318 316 314 314 314 315 315 314 314 314 314 315 315 315 317 317 317 316 317 317 317 316 317 317 317 316 316 316 315 315 315 314 315 315 314 314 313 312 312 313 313 313 313 313 313 312 311 311 310 310 310 310 310
312 312 312 312 313 313 311 311 311 311 312 311 312 312 311 311 310 309 308 307 307 306 307 307 308 307 307 307 309 313 312 314 316 317 318 319 318 317 315 315 316 316 315 313 314 314 314 313 314 318 319 316 317 318 317 315 315 317 317 316 316 315 316 315 315 315 314 316 316 313 315 315 314 315 313 312 312 312 312 312 312 311 311 310 310 310 310 310
312 311 311 312 312 313 312 312 312 312 312 312 312 312 312 311 310 309 308 307 307 306 306 307 307 307 307 308 308 310 311 312 313 314 315 316 316 317 317 318 318 317 315 314 314 314 314 315 315 318 318 317 319 318 315 314 316 317 316 317 317 316 318 317 315 315 314 317 317 314 316 315 315 316 315 313 312 312 313 312 311 311 311 310 310 310 310 310
311 311 311 311 312 312 312 312 312 312 312 312 312 312 312 311 309 308 307 306 306 307 307 307 307 307 307 308 308 309 311 310 310 311 313 314 314 315 318 319 318 316 315 315 315 314 314 314 314 316 316 317 319 317 316 317 318 318 317 318 318 319 323 320 316 316 315 316 315 314 316 314 313 314 315 316 315 313 313 312 311 310 310 310 310 309 310 310
310 310 311 311 311 311 311 311 312 312 312 312 312 312 311 310 309 307 306 306 306 306 306 306 307 306 307 308 308 309 310 310 310 310 311 313 312 314 316 317 316 315 314 314 314 314 314 313 314 317 318 316 317 318 319 319 320 319 319 320 319 320 323 319 315 315 315 314 312 313 316 314 312 312 313 315 314 312 312 310 310 309 309 309 308 308 308 308
311 310 310 310 310 310 310 310 311 311 311 311 311 311 310 309 308 307 306 306 306 306 305 306 306 306 309 310 308 309 310 311 313 311 311 311 312 314 315 316 315 313 314 313 313 312 312 313 315 317 318 316 317 320 319 319 321 319 318 321 321 321 320 317 317 315 313 313 312 312 314 313 312 312 311 312 312 311 310 309 309 309 309 309 309 308 308 308
313 311 310 310 310 310 310 310 310 310 310 310 310 310 310 308 307 306 307 306 305 305 304 306 306 306 311 310 308 313 312 310 312 312 311 311 311 313 314 315 313 312 312 312 312 312 312 314 315 315 316 317 319 321 319 321 325 323 319 320 321 320 319 318 319 316 313 313 313 312 312 312 312 311 311 311 311 311 311 311 311 311 310 310 310 310 309 309
315 313 311 310 311 311 311 310 310 309 310 309 309 310 309 307 307 307 307 305 304 304 304 305 305 307 312 311 311 315 314 311 312 312 312 311 311 313 314 314 313 312 313 314 313 313 314 315 315 316 316 317 318 319 319 321 323 326 322 320 319 317 317 317 316 316 314 313 313 313 313 312 312 311 311 312 312 313 313 312 312 312 311 311 311 311 311 310
316 315 313 311 311 312 311 311 310 310 310 309 309 309 307 306 306 306 306 304 305 307 308 308 306 307 310 315 313 313 314 313 313 312 312 312 311 312 313 313 313 314 316 316 315 314 315 316 316 317 317 316 317 317 318 318 317 320 319 319 319 317 316 315 314 315 313 313 313 313 314 313 312 312 313 313 314 314 314 313 312 312 312 312 312 312 312 312
316 316 315 313 311 311 312 311 311 311 310 310 309 307 306 306 307 307 305 304 305 308 310 309 308 309 311 314 314 313 314 314 313 313 312 312 312 312 313 313 315 316 316 317 317 314 314 317 317 317 317 316 316 315 316 316 316 318 319 318 318 317 316 315 315 315 313 313 315 314 315 314 313 314 314 314 314 314 313 313 314 313 314 314 316 317 316 314
316 316 316 314 312 311 312 312 311 311 309 310 308 305 306 307 308 308 306 305 304 305 307 306 306 309 309 310 312 312 313 314 314 314 312 312 312 313 315 315 316 316 316 317 317 314 313 317 317 315 316 315 315 315 315 316 317 318 318 318 318 316 316 315 315 314 312 313 315 316 316 315 314 315 314 314 314 314 314 315 315 314 314 315 318 320 319 317
314 315 316 315 314 312 311 312 312 310 309 309 307 305 305 305 306 306 305 305 305 303 305 305 305 306 306 306 308 310 313 316 317 315 312 312 313 315 316 316 317 317 315 315 315 314 314 316 315 314 317 317 316 316 315 316 316 317 317 317 317 316 316 315 315 315 314 314 316 316 316 315 314 314 314 314 314 315 315 316 315 315 316 316 317 319 319 320
311 313 315 315 315 313 312 312 312 310 309 308 306 305 305 305 304 304 304 306 306 305 305 305 305 306 305 306 306 307 311 314 316 315 313 312 313 315 316 315 316 316 315 315 315 316 316 316 315 315 317 318 317 316 316 316 316 317 317 317 317 316 317 317 317 318 316 314 315 316 315 314 313 315 317 317 318 319 317 316 315 315 317 315 314 316 316 317
310 311 313 314 315 314 312 312 311 310 309 308 307 306 305 305 304 304 304 305 307 306 305 305 305 306 306 306 305 307 310 311 313 314 313 313 313 315 315 315 315 315 316 315 315 315 316 318 318 316 317 317 317 316 316 316 316 316 316 317 317 316 317 317 317 317 315 316 317 315 316 319 319 322 321 316 318 317 315 317 318 315 314 313 314 316 314 314
308 309 311 313 314 314 313 312 311 310 309 308 307 307 306 305 304 304 304 306 309 307 305 305 305 306 306 305 305 307 308 309 312 313 312 312 313 315 315 314 315 316 315 314 315 315 315 316 315 316 317 315 316 317 316 316 316 316 316 316 316 317 317 316 317 317 317 322 321 316 320 325 325 323 317 314 318 317 315 317 317 316 315 314 316 316 315 315
306 308 309 311 313 314 313 312 310 310 309 307 307 307 306 305 304 304 305 311 314 310 308 308 308 308 307 306 306 308 310 311 311 311 312 312 312 314 316 314 314 316 315 314 315 315 315 315 313 316 317 316 316 316 315 316 316 317 319 318 316 315 316 317 317 317 320 324 319 316 321 323 319 316 316 318 319 319 319 318 315 315 316 316 315 314 314 314
303 306 308 310 312 313 312 310 309 309 308 308 308 306 305 305 303 304 309 317 318 314 311 309 307 307 309 308 307 310 314 314 312 312 312 313 312 313 317 316 315 314 315 315 315 315 316 316 316 315 315 316 316 315 315 316 316 319 321 322 321 318 318 320 318 318 320 320 317 316 319 319 319 317 318 320 318 320 323 320 316 316 316 317 316 315 314 313
301 304 306 308 311 313 312 310 308 308 308 308 308 306 305 304 303 305 315 324 321 317 314 310 307 307 310 309 308 311 313 312 315 315 311 312 313 314 315 316 315 315 316 315 314 315 317 318 317 316 315 316 314 314 317 316 317 321 320 320 323 321 321 321 318 317 317 316 318 318 316 319 322 320 318 317 316 320 324 320 317 317 317 317 317 316 316 315
299 301 304 306 309 312 311 310 309 308 308 308 307 306 305 303 304 309 317 322 320 316 314 311 310 310 310 309 308 310 311 312 316 315 312 313 313 313 314 314 315 316 316 315 313 312 315 317 317 316 315 316 314 315 319 316 316 321 318 317 322 322 319 318 316 317 318 317 319 319 317 319 323 323 321 318 317 322 323 318 317 317 317 317 318 317 316 316
299 300 302 304 307 309 309 308 308 309 308 307 306 304 303 303 308 316 320 321 320 316 312 311 312 312 311 310 310 310 312 314 315 313 314 314 313 313 314 313 315 316 315 316 314 313 314 315 315 315 316 316 316 317 317 316 316 317 316 318 323 323 320 320 319 318 320 320 318 319 319 317 320 325 325 319 320 325 320 313 314 314 315 316 317 319 318 316
298 299 300 302 304 306 307 307 307 308 308 306 305 303 304 307 313 321 322 319 318 317 312 311 312 312 312 312 313 312 312 315 314 314 316 315 314 315 315 314 315 315 315 315 315 313 313 313 314 317 317 316 316 316 314 314 314 315 319 322 323 322 318 317 319 319 320 322 320 318 317 315 318 326 326 321 319 320 316 312 313 313 315 318 319 323 322 319
297 299 300 300 301 302 305 307 307 307 306 305 303 304 309 313 315 320 320 317 318 317 315 316 313 312 312 313 314 312 312 316 315 315 316 315 315 316 315 315 315 316 318 316 314 314 314 313 313 315 316 315 317 318 316 313 314 317 321 322 321 321 318 316 319 320 318 319 318 316 315 316 318 319 320 318 316 315 315 314 313 314 316 317 319 323 325 325
297 297 299 299 299 300 302 305 306 306 305 304 304 306 312 316 317 317 317 320 320 316 316 318 314 313 312 313 315 311 312 316 315 314 315 314 316 315 314 315 314 316 319 315 312 315 316 314 312 313 314 315 316 318 317 316 316 316 318 320 320 320 320 320 319 317 319 319 316 315 316 319 319 318 316 316 314 314 314 313 314 316 317 317 320 325 326 327
297 297 298 298 299 299 300 302 305 305 304 304 306 309 312 316 318 316 315 318 317 315 317 317 313 313 312 314 315 311 312 315 313 315 315 314 316 315 315 316 313 314 317 316 314 316 318 318 316 314 315 316 314 314 318 320 316 314 317 318 319 318 320 322 320 318 323 324 316 314 318 323 325 322 317 313 313 313 312 313 314 317 319 320 321 319 321 326
298 297 297 297 298 298 299 300 303 304 303 305 307 310 313 315 315 315 316 316 315 316 317 314 312 314 314 314 313 312 313 315 313 314 315 314 316 315 314 315 313 313 316 316 316 315 315 319 318 314 315 315 314 314 317 318 315 314 316 317 318 319 318 318 319 318 318 319 317 316 320 324 323 318 313 312 314 314 312 311 313 316 318 319 317 315 320 327
297 296 296 297 296 297 298 300 302 303 304 306 308 311 313 313 313 315 317 316 315 317 316 313 314 316 315 314 313 312 313 315 314 314 314 313 314 314 314 315 314 313 313 313 317 316 316 320 316 312 314 315 314 315 314 316 317 314 315 316 316 317 315 316 318 315 312 315 317 317 319 319 316 315 314 313 315 314 312 311 311 314 315 316 317 317 324 328
297 296 296 297 296 296 297 300 303 303 304 306 309 311 312 312 312 315 317 315 314 317 317 316 316 316 316 316 315 314 313 314 314 314 313 313 314 314 313 314 314 313 313 312 315 318 317 320 316 312 316 313 310 313 314 313 315 315 317 316 313 314 316 317 318 318 316 316 318 317 317 316 315 319 320 314 314 313 311 310 310 311 313 315 317 319 323 326
297 296 297 296 295 295 297 300 302 302 303 306 309 310 311 311 311 313 316 314 312 314 316 316 316 316 317 317 316 315 314 315 315 313 314 314 315 315 313 315 315 313 313 312 314 317 316 317 317 313 314 312 309 313 316 312 311 315 317 315 314 317 318 316 317 319 318 318 320 319 316 314 315 320 320 316 316 314 309 308 309 309 311 312 315 319 321 323
297 296 296 296 295 295 297 300 302 302 304 306 308 310 310 311 310 310 314 314 312 314 315 315 315 314 316 316 316 315 314 315 315 314 315 316 316 316 314 315 315 313 313 312 312 316 316 317 318 313 310 312 312 314 318 315 312 312 313 312 313 315 317 316 316 317 318 318 320 321 319 317 316 316 316 315 315 312 308 308 308 308 309 310 313 318 322 324
296 296 295 296 296 296 297 300 302 302 304 306 307 309 309 310 311 310 312 313 311 313 314 314 314 314 315 315 316 316 315 315 315 314 316 316 316 318 315 314 317 314 312 312 312 314 316 317 317 313 309 311 314 315 316 316 314 313 314 314 312 312 315 316 314 315 319 320 321 320 318 318 318 315 313 313 313 310 308 308 308 307 307 309 312 316 323 328
296 295 294 295 296 296 298 302 303 303 304 305 306 308 308 310 312 311 312 313 311 312 312 313 314 314 314 314 314 315 315 315 315 315 316 316 316 318 315 314 317 315 312 313 313 313 316 317 317 316 313 313 316 315 313 314 315 314 315 315 313 312 314 315 315 314 315 319 322 319 315 315 318 316 313 312 313 311 309 307 308 308 307 310 311 315 323 328
295 294 295 296 297 298 300 303 303 303 304 305 306 307 307 308 310 310 310 311 310 310 310 311 312 312 313 313 313 314 315 315 315 314 315 316 315 316 315 314 315 314 312 313 312 313 316 317 317 318 317 315 314 311 310 311 313 313 314 314 313 313 314 315 317 315 313 316 319 317 315 314 315 317 315 314 314 312 309 307 308 308 307 310 313 317 323 325
293 294 295 295 297 299 301 302 303 303 304 304 305 306 306 307 308 308 308 310 310 310 310 310 310 311 311 312 312 313 315 314 314 315 315 315 315 315 315 315 315 313 313 314 313 313 315 316 316 316 317 316 312 309 307 307 309 312 313 313 313 313 313 313 315 316 316 317 315 315 314 314 316 320 318 315 315 312 310 308 307 308 308 312 316 318 321 320
293 294 295 294 295 298 300 301 303 303 303 304 304 305 305 305 306 306 307 308 309 310 310 309 310 310 311 311 311 311 314 314 314 314 314 314 315 316 316 316 315 314 315 316 315 314 315 316 317 317 319 319 315 313 311 308 309 312 313 312 312 313 313 313 314 314 315 315 314 315 314 312 316 321 318 316 315 313 313 310 307 308 310 313 317 318 318 316
294 293 294 294 295 297 299 300 301 302 302 304 304 304 304 304 304 305 305 305 307 308 309 309 310 310 310 310 310 310 312 313 313 314 314 313 314 316 317 316 315 314 314 316 316 314 316 318 317 317 319 320 318 318 317 313 310 311 313 312 311 312 313 313 314 314 314 315 314 314 314 311 313 316 316 317 316 313 314 311 307 309 312 314 317 317 314 313
293 292 293 294 295 296 297 298 299 299 300 302 303 303 304 303 303 303 304 304 304 305 306 307 309 309 309 310 310 310 311 311 312 313 315 314 313 314 315 314 314 314 315 316 315 315 318 319 317 317 318 318 317 317 317 316 313 311 312 313 311 311 312 312 314 315 314 315 314 313 313 312 312 312 313 316 316 314 314 313 311 312 313 314 315 312 309 308
293 292 293 295 295 296 297 296 297 297 298 300 301 302 303 303 303 303 303 303 303 304 304 304 306 307 307 309 310 310 310 310 311 311 312 313 314 314 314 311 311 313 314 315 315 315 317 317 316 317 317 316 316 317 316 315 314 313 312 312 311 311 311 312 313 314 313 314 315 313 313 313 312 311 311 312 314 314 313 312 312 311 312 312 310 307 306 305
293 292 293 296 295 295 296 296 296 296 297 297 298 300 301 301 301 302 302 303 303 304 304 304 304 305 306 307 309 309 310 310 311 310 310 311 312 313 313 311 310 311 312 312 313 314 315 315 316 317 317 316 316 317 316 313 313 313 312 312 312 311 311 312 312 313 313 314 314 313 313 314 312 311 311 310 310 311 311 311 310 309 310 311 308 305 304 302
292 291 292 295 294 293 295 296 295 295 296 296 297 298 298 298 299 299 300 301 302 302 303 303 303 304 304 305 306 307 307 308 310 310 310 310 310 311 311 312 311 310 310 312 312 312 313 315 315 315 315 316 315 315 315 314 313 313 312 312 312 311 311 312 312 312 312 313 313 313 313 313 311 311 312 310 309 310 310 309 310 309 309 308 305 303 301 298
292 291 292 293 292 292 293 293 293 293 294 295 296 297 297 298 298 298 298 299 300 300 302 302 303 303 304 304 305 305 305 306 307 308 309 309 310 310 310 311 312 311 310 311 311 311 312 314 315 315 314 314 314 315 315 314 313 313 312 312 312 311 311 311 311 312 312 312 312 312 313 312 311 311 312 311 310 311 311 310 311 309 305 303 301 299 297 295
292 291 292 292 291 292 293 292 292 293 293 295 295 296 296 297 297 297 297 298 298 299 300 300 301 301 302 303 303 304 304 304 304 303 304 305 307 309 309 310 312 312 309 310 311 310 311 313 314 314 314 313 313 314 314 314 313 313 312 312 312 312 312 311 311 311 311 312 312 312 312 312 311 312 312 311 311 312 311 310 312 311 304 301 299 296 294 293
291 291 292 292 291 291 292 293 292 292 292 294 294 294 295 295 296 296 296 296 298 298 297 297 298 298 298 299 301 302 301 300 299 299 300 300 302 304 306 307 309 309 308 309 310 310 311 312 312 313 313 313 313 313 312 313 313 313 312 312 312 312 312 312 312 311 311 311 311 312 312 311 312 314 314 312 312 312 311 310 312 312 306 301 298 294 292 291
Wind_Speed
8 7 7 7 7 8 8 7 6 6 6 5 6 6 6 6 7 8 9 9 10 10 10 12 12 13 14 15 17 17 18 18 18 15 11 19 23 20 19 16 9 6 8 10 8 6 4 3 6 6 2 1 1 1 2 2 2 2 2 2 4 4 4 5 6 5 3 6 8 9 8 7 10 10 6 7 10 11 12 12 9 7 7 10 14 16 16 17
10 8 8 7 7 8 9 8 6 6 6 6 6 6 6 6 7 8 10 10 10 10 10 11 12 13 14 15 16 17 18 19 17 15 20 22 19 20 22 16 10 10 11 11 11 9 4 2 4 1 2 1 1 1 1 1 2 3 3 2 5 5 5 5 5 6 4 8 11 10 10 9 11 9 3 7 13 12 14 16 11 10 12 13 14 16 18 17
11 9 8 7 7 8 9 8 8 7 6 6 6 6 7 6 7 9 10 10 10 10 10 11 12 13 14 15 15 15 17 16 11 12 17 13 10 14 15 13 12 12 12 11 10 10 6 3 3 3 2 1 2 1 1 2 2 3 3 4 7 6 6 5 7 8 9 11 12 12 11 11 12 8 4 8 13 13 16 17 12 13 14 14 14 13 16 16
12 10 8 8 8 8 8 9 10 9 7 6 6 7 8 8 8 10 11 10 10 10 10 11 12 13 15 15 13 13 13 9 5 5 5 4 3 4 9 13 12 11 11 9 8 8 6 3 2 3 2 1 3 1 2 3 2 2 4 6 7 5 6 9 9 11 12 11 11 13 12 13 13 7 5 9 11 13 17 15 11 14 15 14 14 13 12 11
10 10 9 8 8 8 9 10 11 11 10 8 6 6 8 9 10 11 10 10 10 10 11 11 12 14 15 15 12 10 7 3 3 1 3 3 4 7 12 13 12 10 9 10 8 5 5 1 4 3 1 1 3 2 3 5 3 2 5 8 9 5 8 10 8 10 11 9 10 12 12 12 10 7 8 9 10 13 16 11 8 11 12 12 12 11 11 10
9 9 9 9 9 9 10 12 12 12 12 10 7 5 8 11 11 10 9 9 10 10 10 11 12 13 15 16 11 4 1 1 3 1 1 3 7 8 11 13 12 9 9 10 7 3 3 1 3 1 1 1 3 3 5 4 3 3 5 6 8 8 11 11 7 10 10 8 10 11 10 8 8 12 12 11 15 18 19 16 11 12 12 12 13 12 13 14
10 10 10 10 9 10 11 12 13 12 12 10 7 7 10 12 10 8 7 9 10 11 11 11 12 13 14 14 6 0 1 5 8 4 2 2 6 9 13 13 10 9 9 9 6 3 3 2 2 3 2 2 4 5 6 4 2 5 6 6 8 9 11 10 8 10 9 10 12 10 9 10 12 14 12 14 20 20 20 19 15 14 14 14 14 14 16 17
11 10 10 10 9 10 10 11 12 12 12 9 7 9 11 11 9 7 7 10 11 12 12 11 11 12 13 10 3 1 3 10 15 12 9 5 8 12 14 12 9 9 8 8 8 6 4 4 4 3 2 3 3 4 3 4 4 6 6 5 5 7 9 9 8 10 12 12 11 10 12 15 16 11 13 21 24 22 19 17 15 14 14 14 14 16 17 17
11 10 9 9 10 10 9 10 10 10 10 9 8 9 9 9 7 6 8 11 13 12 11 10 11 10 10 6 2 2 5 6 8 8 10 11 12 13 14 12 10 9 7 9 10 8 5 4 5 4 4 4 3 3 1 1 4 5 5 5 6 9 10 11 11 12 13 11 9 12 16 20 14 5 14 25 24 22 17 13 14 13 14 14 14 16 16 16
11 10 10 10 11 11 9 8 9 9 10 10 10 9 8 7 6 7 9 11 14 13 10 9 10 10 8 4 1 3 5 3 2 3 6 10 14 15 16 13 10 9 8 7 9 9 6 6 5 4 3 2 2 3 1 2 4 5 5 6 8 10 12 11 11 14 14 12 13 14 17 21 10 2 10 23 19 12 10 12 13 11 12 14 14 14 14 15
11 12 12 12 13 13 12 10 9 9 10 10 10 10 9 7 6 8 9 11 15 13 9 8 9 9 7 2 2 5 4 4 4 3 3 8 15 17 18 15 11 10 10 6 7 9 8 8 5 4 1 1 2 3 3 3 3 6 8 9 11 9 12 14 12 15 10 8 11 9 14 18 6 6 16 23 19 10 8 13 13 11 12 13 14 14 13 12
13 13 13 13 13 14 13 12 11 10 10 10 10 10 10 8 6 9 10 12 15 14 10 9 9 8 6 4 9 14 8 5 6 4 5 8 13 16 15 13 11 11 12 7 4 5 6 8 6 4 3 1 1 3 3 4 5 6 6 10 15 8 10 15 11 10 4 4 7 1 11 14 6 11 20 19 17 14 13 15 15 14 14 14 14 13 12 12
14 14 14 12 12 13 13 12 11 11 11 10 10 10 11 9 8 10 10 12 13 12 10 9 9 8 6 4 11 18 15 10 9 9 9 9 11 13 11 11 9 9 12 9 4 3 1 5 7 6 3 2 2 3 2 4 4 7 4 4 11 9 8 9 4 4 2 5 5 4 6 13 6 13 16 12 11 12 14 16 15 14 13 13 13 12 13 13
14 14 14 12 12 12 13 12 11 11 11 11 10 11 11 10 10 9 9 10 10 11 10 9 9 8 5 7 12 14 14 14 17 18 16 12 11 9 8 10 7 5 7 8 5 4 3 4 5 2 1 2 2 4 5 4 2 5 5 3 3 4 6 6 2 3 4 5 1 6 4 13 15 13 9 8 9 9 12 16 15 13 12 11 11 11 13 13
14 13 13 13 13 12 12 11 11 11 10 11 10 11 11 10 9 9 10 10 9 11 10 9 9 6 4 10 13 10 8 10 16 22 21 17 11 6 7 10 7 4 5 5 5 5 4 4 3 1 2 2 1 4 5 4 2 2 3 3 1 3 6 8 7 4 4 5 3 5 5 10 16 17 8 6 7 7 11 16 16 15 15 13 12 11 12 13
15 14 14 14 13 12 12 11 11 11 10 10 10 11 11 10 9 10 11 9 9 10 7 6 7 5 4 7 5 4 6 7 9 11 15 20 15 7 8 10 7 6 6 5 5 4 4 4 1 2 1 1 1 2 4 4 4 1 2 4 3 4 6 7 7 3 5 3 0 4 6 10 14 17 15 10 8 8 11 16 18 17 16 14 12 11 11 12
18 16 15 14 14 13 12 11 11 10 10 10 11 11 11 9 9 11 10 9 10 10 6 6 6 3 6 6 3 5 6 8 8 4 6 17 18 11 9 7 5 5 6 5 4 2 3 2 0 0 1 0 2 3 3 4 4 2 2 4 5 5 5 6 6 5 1 3 5 5 8 15 19 18 19 18 12 9 12 16 18 17 15 14 11 10 11 10
20 19 17 16 15 14 13 12 11 10 10 10 11 11 10 10 11 12 11 9 7 6 5 8 6 3 6 6 4 4 2 3 6 4 3 10 16 14 10 6 5 6 5 3 1 1 1 1 1 1 1 1 3 5 3 6 5 3 4 3 5 5 6 8 6 5 7 8 10 9 11 19 23 18 16 18 15 11 13 15 16 16 15 14 11 10 10 10
23 21 20 18 16 15 14 13 12 10 8 9 8 8 9 9 11 12 10 6 2 1 2 6 6 2 3 4 3 2 1 2 3 4 5 11 14 12 9 6 6 6 4 0 1 2 2 2 2 1 3 5 7 9 10 10 6 4 5 3 6 7 8 11 9 5 5 9 11 11 13 18 22 20 17 19 17 12 14 13 12 13 12 11 9 9 9 9
23 24 23 21 18 16 15 13 12 10 8 8 6 4 6 5 4 5 5 7 8 7 3 5 10 5 4 2 1 1 2 3 2 3 9 14 15 12 6 5 5 3 3 4 2 1 3 3 4 7 8 10 11 12 14 11 4 2 4 4 8 9 11 12 9 6 4 5 9 9 12 17 21 22 19 18 16 14 14 12 11 10 9 8 8 8 8 8
20 23 24 24 21 18 17 14 12 10 8 8 5 1 2 2 1 1 2 7 15 17 11 10 13 11 8 3 1 1 2 1 2 3 11 16 17 12 4 3 4 2 3 4 2 0 3 5 11 12 9 9 11 11 12 10 6 5 5 6 8 9 12 13 11 10 6 4 6 6 11 18 20 21 19 16 13 13 12 9 11 12 10 8 7 8 8 7
12 18 22 24 23 20 18 15 14 11 8 9 7 4 3 5 5 2 1 5 11 18 18 16 15 14 15 14 9 1 4 2 4 3 11 14 12 9 5 6 6 4 4 4 2 1 2 7 15 11 6 7 9 9 9 10 9 7 4 4 7 6 6 10 9 7 3 2 6 9 12 17 20 20 18 14 11 10 9 7 10 11 10 9 7 7 7 7
7 11 17 22 24 22 19 17 15 12 12 12 10 7 5 7 8 4 1 4 7 10 13 15 14 13 15 18 14 6 3 5 4 5 13 14 7 7 6 8 7 4 5 7 6 5 4 8 14 8 6 7 7 7 8 8 6 6 5 4 7 6 3 6 5 4 5 4 7 11 10 13 17 16 12 10 8 7 8 8 8 7 6 8 8 7 6 7
5 6 10 17 22 23 21 18 15 14 16 15 15 14 8 5 6 2 0 2 6 5 8 13 11 9 13 10 9 13 9 6 4 5 14 15 6 4 6 7 7 5 6 10 10 9 7 7 6 4 7 9 7 7 7 6 5 6 9 8 9 8 7 8 5 7 9 6 5 7 7 9 9 8 9 7 4 5 7 7 6 4 3 7 7 6 6 6
4 4 6 11 17 23 23 18 16 17 16 14 15 17 14 10 5 3 1 2 5 5 3 8 6 7 12 7 9 12 6 5 5 5 13 16 10 5 3 4 4 6 9 9 9 9 10 8 3 1 5 8 7 8 7 7 5 5 10 13 13 12 11 10 7 7 6 5 4 5 5 6 4 7 12 8 5 8 7 6 7 7 6 7 7 7 8 7
5 4 4 6 13 21 21 12 14 18 13 12 13 9 11 14 8 5 2 2 5 4 1 4 4 7 10 7 8 8 4 4 8 9 15 18 13 6 3 3 2 6 7 6 5 4 6 8 8 9 7 7 7 8 7 8 5 4 7 10 12 12 10 9 6 3 1 5 4 3 1 6 8 11 12 5 6 9 7 6 7 6 6 6 6 7 7 7
6 5 3 4 9 21 17 7 13 17 8 9 14 9 9 12 10 6 1 2 5 2 4 1 1 7 8 7 9 8 3 3 2 8 13 17 13 3 3 6 3 4 4 3 3 3 5 8 10 12 9 7 8 8 7 9 6 5 5 5 7 8 7 6 4 4 3 4 5 2 4 4 9 10 6 1 6 9 7 7 7 6 6 6 6 6 6 6
8 6 4 3 6 20 20 12 18 16 9 6 8 13 12 11 10 4 2 2 4 3 4 1 1 5 3 5 8 4 2 0 4 2 6 15 14 2 3 9 7 7 6 5 5 4 5 7 10 11 8 8 8 8 9 10 6 7 5 4 5 6 6 5 5 4 2 3 6 4 5 3 8 7 4 2 6 7 6 6 6 6 6 6 7 7 7 7
9 7 6 5 4 17 22 18 18 16 16 10 7 13 14 11 7 2 2 4 2 3 3 2 3 2 3 4 4 1 2 2 1 0 2 8 10 1 3 7 7 7 7 7 9 6 3 5 8 9 7 7 7 7 9 11 8 5 3 3 2 2 2 3 3 2 2 3 9 7 6 3 6 6 5 2 4 6 6 6 6 6 6 6 6 7 7 6
9 8 7 6 4 9 14 16 17 16 17 13 12 16 14 8 3 2 4 6 1 3 2 2 2 2 5 6 3 1 1 2 1 2 3 2 3 2 0 2 4 4 4 5 8 8 4 2 3 5 6 5 5 5 7 11 9 3 4 1 5 4 4 3 1 2 2 5 10 8 11 8 5 6 5 4 4 5 5 4 6 6 7 7 6 6 6 6
9 9 8 6 6 3 5 9 15 18 17 17 18 17 10 3 1 3 7 3 2 1 2 2 1 3 7 6 3 2 1 2 1 4 2 2 3 1 1 1 3 1 2 6 8 8 6 5 3 4 5 5 3 3 2 3 6 5 4 3 3 4 3 4 3 3 1 6 6 5 10 9 6 6 4 4 6 4 6 6 7 7 7 6 6 6 5 6
9 9 9 8 9 7 4 5 14 21 20 23 22 12 4 1 2 8 6 3 1 2 3 3 2 4 5 2 1 4 3 1 2 4 4 3 5 6 5 4 4 2 3 6 4 4 7 11 10 5 3 6 5 3 1 2 4 5 4 5 1 3 3 3 2 0 4 7 4 2 5 5 7 10 10 10 10 8 6 7 8 8 7 6 6 6 5 5
10 10 10 10 11 10 6 4 14 25 25 26 18 3 1 4 7 12 7 3 3 2 2 3 3 5 5 1 1 4 4 1 4 4 3 4 5 6 6 7 5 2 2 4 2 1 4 7 7 5 4 6 9 7 4 2 5 6 5 6 5 3 1 3 4 2 4 6 4 3 4 3 5 8 14 16 16 12 8 7 8 9 8 7 7 6 5 6
11 10 12 12 12 12 9 6 13 29 30 23 11 1 5 8 11 11 9 7 4 1 2 3 5 5 5 3 3 6 4 3 6 5 3 5 4 5 7 9 10 3 2 1 1 3 3 6 5 8 3 7 13 11 6 6 6 6 6 5 5 5 4 4 4 3 4 4 4 1 3 4 4 4 8 10 11 9 6 8 8 7 8 6 5 6 5 6
11 11 13 14 14 13 12 9 15 31 29 15 6 5 8 10 11 8 7 7 3 2 2 2 5 5 4 4 3 6 5 3 6 7 4 6 5 5 5 6 11 7 2 2 2 3 4 7 6 6 1 8 13 8 6 8 3 4 4 4 4 6 4 3 3 3 1 3 3 2 4 5 4 7 10 7 8 5 2 6 7 7 8 5 5 6 5 5
13 13 12 13 15 15 12 9 17 29 21 9 7 8 9 11 9 4 3 5 5 5 4 1 3 4 5 2 2 7 5 3 7 6 4 6 4 5 4 4 11 13 9 6 2 2 3 5 3 2 2 4 8 4 6 6 4 2 3 4 5 4 4 2 3 1 2 2 4 3 5 5 3 9 12 8 7 5 3 5 8 9 8 6 6 6 5 5
13 12 8 10 15 15 12 11 20 25 13 7 8 8 9 13 9 4 2 3 4 6 8 4 5 6 6 3 4 8 5 2 5 5 3 3 3 6 8 5 8 15 16 9 2 3 4 4 3 3 1 2 1 2 2 2 4 5 4 6 3 2 1 2 1 3 2 3 5 2 6 6 3 6 7 4 4 7 7 8 9 9 8 7 7 7 6 6
11 8 8 13 18 16 14 14 22 20 7 6 10 10 11 12 9 5 3 3 2 4 7 7 6 7 7 6 5 7 7 4 6 6 4 3 4 8 10 6 8 18 21 12 3 3 2 2 4 2 2 1 3 3 2 2 1 4 4 3 3 1 2 2 3 2 1 3 4 3 5 5 6 6 4 4 6 8 9 10 10 10 9 8 8 7 7 6
7 4 6 10 11 15 19 19 20 13 4 6 12 12 11 12 10 7 4 4 2 3 6 8 7 6 7 7 4 6 9 8 8 7 4 5 5 8 13 9 8 15 18 13 7 3 1 2 3 1 1 1 3 1 4 3 1 1 1 1 1 1 3 3 3 3 3 4 3 4 4 4 7 6 6 11 11 10 10 10 11 12 11 9 8 7 6 6
3 2 5 7 6 10 22 21 14 7 5 9 12 10 10 10 7 4 5 7 5 3 6 8 8 8 7 6 4 5 8 9 9 7 6 7 6 6 11 10 6 8 13 14 9 2 2 3 3 1 2 1 2 4 8 10 7 4 4 4 2 1 1 1 1 2 4 3 3 2 5 6 5 4 9 13 10 9 11 12 12 12 10 9 9 7 6 6
3 2 5 10 8 11 21 16 8 6 7 9 11 12 11 7 3 2 5 9 8 4 4 5 7 7 5 6 5 4 6 6 8 8 5 7 8 6 7 10 8 7 9 9 8 5 3 4 3 2 2 4 6 5 6 11 11 9 8 8 8 6 3 2 4 2 2 3 4 3 6 10 6 4 8 9 7 8 11 12 12 11 10 9 9 8 7 6
3 4 3 7 5 16 16 6 5 6 7 9 12 13 8 3 4 6 4 4 6 6 5 5 6 6 5 7 7 5 6 4 7 8 6 9 12 8 6 10 12 12 11 8 11 9 4 1 2 4 5 6 6 3 2 5 6 4 5 6 7 8 7 6 7 4 1 3 5 3 4 11 6 4 6 6 7 8 8 10 10 8 9 10 9 8 7 7
3 5 7 13 8 17 11 5 8 8 7 9 12 12 8 5 6 5 3 3 5 6 6 7 7 9 9 7 6 5 5 5 9 10 8 10 11 8 6 9 11 13 10 6 6 5 3 1 4 6 4 3 2 2 3 2 2 2 4 4 6 8 10 7 4 3 2 4 5 3 5 10 7 3 3 2 5 5 4 7 9 7 7 8 8 7 7 7
3 3 7 16 15 13 8 7 10 10 9 9 11 14 12 9 8 7 6 5 3 2 5 7 8 10 9 7 6 6 6 6 9 13 12 9 7 7 9 12 13 12 8 6 7 6 4 4 6 5 3 2 2 2 3 1 2 3 5 5 7 10 10 5 1 2 2 8 10 6 7 10 5 4 3 3 4 5 4 5 7 7 7 7 7 7 5 2
2 1 4 10 11 10 7 6 8 9 10 13 14 15 14 11 10 12 12 9 5 3 4 5 4 5 6 6 6 7 9 9 8 10 11 8 5 5 9 14 15 12 9 10 11 9 6 6 8 7 7 7 7 7 5 3 3 2 4 8 10 13 13 9 4 4 7 13 12 7 9 12 7 5 6 5 3 5 6 4 4 5 5 6 5 3 1 4
1 2 3 4 4 6 6 5 6 6 8 12 12 13 16 15 11 11 12 11 10 9 9 7 4 6 5 6 10 11 12 12 8 5 5 5 4 3 6 12 14 14 13 13 12 8 3 5 12 14 13 12 12 11 5 5 6 6 10 13 14 14 15 11 6 7 10 10 9 12 15 16 15 9 6 7 4 5 6 3 4 5 5 4 2 3 5 5
3 3 4 3 2 5 5 6 8 6 5 7 6 6 13 16 12 10 11 10 10 10 11 10 8 8 8 8 11 12 13 14 13 10 8 5 3 4 4 6 9 12 13 12 10 7 2 6 13 18 19 18 17 13 7 8 9 11 13 15 14 14 13 13 12 14 13 6 10 19 16 14 22 17 11 11 8 5 7 5 5 5 4 3 3 6 6 5
5 3 4 4 2 3 5 5 7 7 8 8 5 6 12 12 11 11 9 7 9 9 7 8 13 17 17 15 12 10 11 13 14 15 13 10 8 6 4 2 5 6 5 5 7 6 4 9 12 15 18 18 16 12 8 7 7 9 11 15 15 15 16 17 17 20 18 11 15 22 13 13 21 17 11 14 12 8 10 7 2 1 2 4 6 6 5 5
4 1 4 4 2 3 4 3 2 4 7 8 5 6 11 13 13 12 6 4 6 7 7 10 14 16 18 18 15 13 12 11 10 11 11 12 13 11 7 6 4 2 3 4 5 4 5 8 10 12 15 16 16 15 12 11 9 8 11 13 14 15 18 19 19 23 24 19 20 22 13 14 19 12 8 10 9 9 10 7 2 2 3 5 6 6 4 4
5 3 3 1 1 3 5 5 4 3 5 6 5 6 10 12 13 12 7 6 7 6 8 12 14 13 15 16 16 17 18 17 17 15 11 10 11 10 9 8 5 4 6 6 4 4 6 9 11 11 12 14 17 17 18 18 17 16 15 13 12 12 15 18 20 22 20 18 20 20 16 18 16 8 7 6 5 7 7 8 6 2 5 6 7 5 3 4
6 4 5 4 2 4 6 4 4 4 4 5 4 4 7 8 7 7 5 6 8 8 8 9 10 9 10 12 15 17 15 14 16 15 13 12 10 7 6 6 6 5 6 7 6 5 7 9 9 10 11 12 15 18 22 24 23 21 19 16 15 14 15 17 18 16 14 15 19 17 16 17 10 4 6 7 6 7 9 10 8 3 6 7 8 6 4 4
6 3 4 4 1 5 4 3 3 4 4 5 5 4 6 7 4 4 5 4 4 4 3 5 8 8 8 11 13 9 5 5 8 10 9 11 11 10 9 8 9 7 4 5 6 5 7 8 8 10 12 12 15 21 23 21 18 15 15 20 22 21 19 19 16 15 16 16 16 14 16 17 7 4 6 9 10 12 14 12 7 4 6 7 8 8 6 5
Wind_Direction
251 245 249 264 274 276 280 273 265 272 279 283 287 294 303 314 323 325 325 328 328 327 331 331 331 332 330 329 327 325 323 313 306 302 273 263 272 272 267 266 251 240 238 226 236 240 236 253 259 258 256 327 270 234 251 197 124 87 116 206 238 226 213 205 205 218 237 280 286 289 297 291 293 297 307 310 295 295 290 277 266 265 254 248 261 267 272 278
260 245 248 256 264 273 282 279 267 266 270 276 281 286 297 309 318 324 324 323 324 325 329 329 329 331 330 330 329 329 324 313 309 290 274 278 280 269 262 256 226 228 230 216 225 213 185 277 253 241 119 137 251 241 275 233 143 151 158 217 233 218 215 198 215 245 253 274 280 280 283 278 281 288 307 300 291 297 292 284 282 280 274 265 265 268 274 274
257 241 249 252 255 267 277 279 273 266 265 273 275 280 291 300 314 324 324 319 321 323 323 326 330 331 330 330 331 329 322 316 309 277 280 291 277 259 244 221 201 216 227 220 222 208 196 228 205 120 109 215 255 226 267 248 193 193 177 232 241 226 244 241 241 255 254 264 276 276 276 273 275 280 280 282 287 288 277 276 279 278 277 277 277 272 273 274
258 246 246 247 248 253 262 273 279 277 269 269 271 275 282 291 307 317 322 319 317 320 322 328 331 332 330 329 329 322 322 321 285 260 308 327 262 219 176 176 186 206 220 215 209 205 218 237 142 89 102 256 294 325 223 227 207 195 186 227 244 226 255 255 245 254 258 259 265 271 277 278 276 274 262 274 286 281 270 265 255 261 270 272 277 279 274 269
259 250 240 241 248 254 261 269 279 280 270 264 264 268 282 297 305 309 316 318 316 318 321 328 331 332 329 327 326 319 333 337 278 261 30 55 105 126 145 160 178 193 203 206 203 202 231 252 74 60 74 245 303 8 243 228 175 202 220 234 247 239 258 261 246 252 259 260 265 271 275 276 283 283 263 260 265 266 268 267 236 242 257 265 270 276 277 272
251 244 234 238 250 260 264 265 272 274 270 264 253 271 299 303 307 309 310 313 317 319 322 326 330 334 331 326 321 313 42 275 298 36 33 91 111 129 146 162 172 177 189 200 202 190 216 135 83 90 117 229 241 218 249 243 164 232 248 242 250 243 256 268 265 265 267 269 267 266 273 283 291 284 273 256 250 255 266 271 261 255 256 260 266 268 270 270
248 244 241 244 249 260 265 265 267 270 271 260 248 279 296 299 308 313 314 320 321 320 320 325 330 333 333 330 320 250 124 252 262 262 273 136 149 158 160 171 174 177 187 193 194 177 176 155 160 179 164 247 232 218 257 280 208 243 261 255 259 250 251 264 267 270 273 267 261 262 280 282 271 275 283 268 258 256 263 269 266 264 264 260 262 262 261 262
248 245 245 245 248 259 264 264 266 271 267 248 245 274 286 297 307 306 318 330 329 324 318 321 329 334 335 337 346 298 261 252 261 261 257 225 179 175 178 185 185 190 197 207 207 181 161 175 195 182 188 245 225 219 270 317 269 244 253 257 268 268 265 271 272 274 276 268 265 272 276 270 263 273 283 272 269 266 262 268 270 264 264 261 258 257 258 259
248 245 243 244 249 254 258 266 267 266 260 242 246 264 274 292 299 298 315 326 332 327 316 321 325 331 334 334 31 300 257 238 264 265 249 229 207 200 201 201 202 206 213 228 216 181 162 196 216 198 196 229 226 242 270 353 263 243 254 277 288 289 287 287 284 280 279 277 279 278 273 269 267 286 281 268 263 269 271 271 269 263 261 260 256 254 253 254
249 245 243 245 249 249 251 264 268 262 257 247 250 255 255 272 284 295 308 322 336 331 316 319 319 332 339 333 98 263 254 184 199 251 244 225 217 219 218 217 217 216 219 229 210 185 180 200 201 168 175 221 233 259 235 190 260 291 296 289 280 286 289 286 284 280 279 280 272 264 267 269 265 136 267 268 262 262 275 271 263 259 257 256 256 255 251 250
249 247 249 249 249 248 245 249 257 257 253 249 253 250 246 258 276 292 306 323 333 328 313 308 313 322 323 325 175 235 230 153 192 214 191 209 219 225 225 224 230 231 222 219 214 206 217 220 180 118 179 243 244 275 267 241 294 316 316 308 287 285 287 278 275 275 274 278 267 251 266 268 238 187 240 259 270 268 261 265 265 259 255 255 255 256 253 249
253 252 256 257 253 247 243 245 252 254 255 255 256 252 248 255 276 294 307 320 323 321 314 307 308 307 299 271 230 239 237 187 200 200 174 194 215 225 231 236 247 242 221 212 220 215 238 232 173 150 232 196 312 287 261 282 323 310 319 311 295 298 284 274 263 258 225 243 271 303 289 276 187 213 241 249 265 273 269 266 267 262 259 257 255 256 255 250
256 257 259 262 254 244 242 245 251 257 261 258 258 256 250 259 280 293 307 317 317 315 312 304 296 293 295 258 238 250 258 245 244 241 210 197 214 224 233 242 250 244 230 225 200 132 208 213 174 182 220 144 253 273 299 334 335 301 300 279 296 314 287 276 251 246 234 248 264 82 301 286 242 227 244 254 256 263 270 267 265 264 261 259 256 255 255 251
255 256 258 259 255 248 247 249 252 258 261 259 255 248 247 263 280 294 312 313 310 308 301 293 287 285 259 249 264 272 272 263 259 244 220 211 227 233 224 222 226 224 224 217 181 119 97 138 141 150 228 175 244 304 334 348 349 303 295 228 291 304 278 294 289 268 301 281 153 114 250 281 287 270 244 252 257 251 261 266 268 267 264 262 257 253 255 254
257 255 254 255 255 254 254 255 255 256 259 261 255 248 255 272 284 303 314 305 302 301 292 279 271 273 274 273 279 280 264 257 255 243 226 218 225 228 207 196 186 159 161 160 142 124 110 104 98 104 272 277 17 352 332 334 345 318 287 289 291 228 269 303 289 225 231 283 106 135 256 273 282 287 271 238 249 252 262 270 274 273 270 265 260 255 254 256
258 255 254 254 256 257 256 257 257 255 257 259 257 259 268 278 287 302 309 300 297 295 289 280 253 224 271 286 288 278 251 236 252 255 230 219 219 212 187 173 156 140 136 120 108 110 92 76 100 163 206 267 115 31 340 324 320 320 208 270 270 239 287 315 303 235 181 279 11 184 273 281 276 289 293 280 265 260 267 275 278 277 276 271 266 261 255 258
257 257 255 253 255 257 255 254 255 256 256 257 260 264 268 279 289 298 300 284 280 277 259 271 276 236 253 272 301 288 261 237 242 271 233 218 215 200 171 152 125 117 113 94 85 81 53 53 195 157 61 148 146 101 9 292 279 295 206 243 260 247 274 296 300 302 24 346 298 260 269 275 278 286 291 290 283 270 269 276 281 280 280 276 271 267 260 258
257 256 254 252 253 253 253 252 253 257 257 262 265 262 266 281 282 282 277 260 267 284 258 262 277 266 255 257 267 267 251 237 227 226 221 198 198 194 174 140 111 102 81 40 30 139 22 18 79 337 1 126 151 139 184 245 229 233 226 237 279 264 251 260 268 302 333 319 296 291 281 278 283 285 285 288 286 281 274 274 278 279 280 279 276 271 263 260
256 257 253 251 249 249 251 250 253 254 251 260 261 263 281 287 276 267 255 231 193 199 231 221 204 190 282 249 231 251 209 151 172 188 171 166 176 181 164 132 110 106 101 91 270 178 150 52 56 229 222 195 195 185 202 226 211 208 233 247 281 282 266 259 258 268 299 298 287 281 280 283 289 291 292 292 293 290 280 277 275 274 274 276 275 270 266 264
250 253 253 250 245 246 248 246 250 247 239 245 245 279 299 290 280 266 230 208 211 224 244 200 198 228 300 282 239 233 188 162 176 174 161 164 159 149 141 101 77 84 144 164 196 206 147 147 225 226 213 202 204 206 217 238 266 286 276 276 274 277 277 274 276 272 249 269 273 263 274 284 287 291 292 292 298 297 288 287 282 278 275 271 268 270 273 267
242 244 249 249 244 241 242 243 242 237 234 227 207 216 284 218 244 313 226 231 229 231 249 236 215 237 257 253 274 135 114 193 265 184 164 166 150 141 160 123 119 191 185 153 131 337 133 178 234 232 209 204 208 213 228 247 271 273 261 277 277 267 271 278 283 279 256 231 262 272 286 287 286 290 292 292 295 288 283 286 288 290 289 280 273 273 279 280
247 241 242 244 242 238 236 237 235 230 221 207 195 209 247 239 246 287 287 277 249 224 233 241 232 247 255 250 253 312 27 258 254 234 174 164 152 162 177 152 170 195 164 147 112 137 172 222 243 235 175 191 214 215 224 236 244 248 246 266 271 268 282 281 273 276 270 221 278 301 297 289 287 287 289 288 280 271 269 271 278 284 287 291 296 294 300 310
274 252 240 238 238 235 230 229 227 217 206 200 197 207 244 255 250 282 315 291 285 227 216 228 226 235 246 250 242 219 254 224 214 232 185 163 163 182 161 165 185 159 160 191 183 173 188 234 246 232 164 181 215 221 216 229 238 234 235 240 255 269 303 276 271 314 312 267 276 296 293 282 284 288 289 270 248 265 282 277 267 258 257 277 291 290 297 312
293 272 251 238 232 230 227 221 215 208 205 209 218 224 236 259 246 264 94 255 278 256 219 213 208 220 232 240 207 190 215 218 175 216 188 166 151 155 158 170 167 161 199 206 200 208 219 232 237 190 174 187 207 225 211 219 240 233 232 231 245 260 252 250 287 332 313 295 285 302 297 275 280 301 302 282 256 284 302 308 306 308 284 283 302 304 302 310
295 287 271 239 228 226 219 208 202 201 200 208 231 239 239 242 237 221 249 302 265 269 248 199 187 221 219 194 167 174 187 229 219 203 181 171 157 133 169 168 148 194 212 206 211 233 243 248 263 170 183 184 202 229 209 200 225 250 240 230 235 247 251 259 298 340 327 308 323 9 337 280 294 306 291 297 315 305 320 341 327 331 330 320 332 323 314 316
295 293 286 244 227 216 207 200 199 193 189 211 231 238 226 225 228 226 239 325 264 246 157 177 171 194 192 158 158 146 114 240 227 180 172 179 173 138 147 165 166 205 196 192 215 245 239 234 237 239 221 182 205 234 204 183 202 255 244 221 223 234 245 259 277 320 288 265 283 52 47 276 300 296 278 287 316 303 314 329 314 318 329 326 322 311 310 318
296 305 294 254 220 203 196 176 180 178 175 227 227 214 201 205 214 233 267 308 269 176 125 231 146 163 172 166 162 143 152 246 172 168 174 179 184 144 152 179 181 198 171 158 235 239 196 203 219 228 225 204 223 235 195 168 179 244 242 189 191 207 220 222 214 221 227 278 287 168 153 263 291 288 269 267 310 308 310 310 313 318 316 309 300 300 305 308
292 303 290 279 216 202 200 173 161 173 192 208 204 203 196 187 200 222 35 282 276 96 116 247 142 147 140 158 165 149 229 188 90 184 174 172 186 180 195 198 178 185 177 162 222 237 164 189 212 210 212 218 226 224 188 167 189 245 229 167 164 179 191 172 170 227 253 344 291 206 147 240 270 276 289 288 283 290 287 280 287 291 291 292 293 302 308 308
294 297 288 292 231 206 209 191 172 187 203 186 159 181 180 176 185 81 39 247 275 86 112 108 133 146 77 131 194 301 2 15 84 247 81 165 191 156 198 201 166 184 205 195 221 243 180 191 196 190 208 220 217 215 184 176 207 238 176 137 61 93 105 115 158 237 25 314 265 215 157 219 266 278 294 296 249 244 250 260 262 265 272 278 288 303 314 322
302 300 294 296 274 213 207 197 190 193 194 182 165 159 153 160 155 57 240 235 51 82 115 113 152 151 119 141 211 282 60 2 43 97 51 144 185 30 321 167 122 172 239 248 245 247 242 231 173 186 213 206 198 204 184 187 197 156 117 95 5 16 33 43 84 64 51 273 260 207 180 199 266 281 254 232 228 200 183 225 253 261 269 275 283 293 306 320
299 302 299 296 305 273 197 193 192 187 183 172 157 146 140 148 102 202 231 244 61 101 102 124 165 125 139 151 177 176 121 10 93 140 136 130 138 125 325 79 95 104 273 271 263 255 254 258 236 216 196 157 145 185 194 193 170 122 105 99 13 333 3 17 11 51 179 251 266 208 182 186 229 262 248 241 252 206 164 184 213 233 253 265 276 280 288 304
288 292 297 287 294 288 255 221 189 180 175 164 151 137 139 183 230 219 238 351 26 198 145 156 166 143 157 155 185 170 134 48 189 166 160 149 171 194 206 196 156 107 262 242 248 263 251 236 230 242 211 160 142 167 320 27 125 135 125 114 121 294 353 352 300 265 226 253 277 157 160 191 231 254 264 265 261 240 205 190 189 203 229 244 257 267 277 293
290 281 283 276 283 277 272 265 191 177 165 156 147 111 159 190 233 224 225 273 248 186 128 138 112 131 149 135 246 171 137 180 185 175 170 157 186 213 227 237 212 166 232 210 218 281 274 262 225 209 236 183 166 186 210 182 160 161 157 153 174 199 237 255 254 268 253 269 287 151 161 255 261 256 256 254 252 239 217 206 197 192 206 223 238 256 280 295
305 290 278 267 274 270 263 268 194 174 160 151 144 126 194 215 240 226 210 222 231 64 79 118 106 124 161 198 216 165 155 224 181 162 172 158 179 218 224 237 230 224 50 139 219 192 244 299 209 178 214 187 187 203 184 138 161 179 158 150 171 168 180 215 213 226 251 288 303 203 176 214 206 245 252 247 259 253 203 199 205 205 214 228 250 260 274 287
307 297 283 267 268 264 253 256 198 173 159 149 161 189 199 227 241 230 213 201 189 79 66 92 114 139 207 236 235 189 180 213 175 160 186 184 189 206 202 215 207 195 156 183 234 179 213 275 221 184 218 173 185 198 137 113 153 201 132 126 194 186 179 224 205 183 199 317 296 219 221 220 214 279 287 272 278 291 207 192 197 214 228 235 253 250 255 276
303 301 292 268 265 257 243 242 197 179 166 150 188 202 208 226 226 218 206 169 162 149 125 77 125 162 225 233 231 222 204 170 168 169 204 206 212 209 199 208 193 190 192 188 204 184 213 285 236 159 351 184 185 178 149 157 176 158 144 181 199 171 155 228 261 20 71 276 264 199 240 271 283 283 284 275 262 261 230 201 198 212 219 218 236 238 244 260
304 307 289 256 259 248 232 224 196 188 184 174 198 214 220 228 225 219 216 153 165 146 140 210 208 171 205 216 211 214 198 149 169 174 189 193 231 213 203 224 193 192 203 200 209 211 204 277 244 168 203 255 241 88 109 197 145 130 189 202 146 87 90 125 244 340 32 254 271 228 235 254 234 257 293 319 258 233 213 200 203 219 219 218 234 235 241 252
306 305 276 261 257 237 219 211 194 191 198 197 213 232 231 231 224 207 188 154 170 136 153 214 213 172 191 207 214 197 179 177 174 174 182 189 237 204 188 212 200 198 206 200 215 264 187 252 272 171 156 323 12 66 65 322 119 133 200 204 117 151 223 136 162 236 229 239 276 285 264 246 212 230 297 298 244 223 212 201 203 220 218 220 236 239 248 263
303 296 273 271 260 225 209 199 188 189 215 210 214 225 230 236 227 204 170 156 173 161 188 219 220 204 197 189 189 177 183 194 175 172 191 194 227 195 177 193 206 204 203 187 197 255 124 209 270 10 179 11 30 113 183 213 209 93 208 251 72 177 186 173 171 171 182 215 260 297 308 262 221 213 225 237 233 210 203 202 207 217 215 215 227 234 246 253
280 281 261 269 278 213 197 190 185 192 215 216 218 224 234 241 235 206 174 187 210 192 201 228 227 224 214 197 201 181 195 205 181 184 208 197 220 219 187 185 182 194 192 184 201 241 76 226 237 5 318 211 181 206 192 185 178 175 198 202 208 211 168 224 236 156 157 177 200 260 284 264 243 205 211 230 234 205 200 204 210 215 210 214 224 228 238 240
238 252 255 276 277 197 184 185 194 208 212 221 228 233 241 244 238 251 210 209 228 209 181 221 228 229 224 218 228 190 186 206 190 196 221 206 217 234 195 178 163 154 157 176 213 214 185 225 205 161 236 217 224 236 199 190 185 182 194 198 194 191 173 215 244 221 123 161 182 191 265 265 252 192 214 234 232 212 208 205 211 213 201 207 225 226 226 228
239 232 244 309 257 180 179 196 206 209 218 219 226 233 250 274 235 242 247 232 241 230 222 238 232 231 229 224 233 201 175 200 202 202 223 216 216 224 198 175 165 152 146 174 209 202 172 179 217 219 227 221 231 256 211 204 200 194 209 200 189 191 191 201 222 221 133 215 210 162 256 266 257 190 207 234 231 221 211 205 213 215 198 202 220 230 229 224
247 241 261 296 252 181 184 229 207 216 235 226 239 247 258 278 248 240 255 238 236 231 235 245 238 238 238 232 237 215 183 202 201 203 226 229 223 223 196 172 162 157 158 176 198 189 136 137 228 245 268 294 300 339 5 33 141 224 241 196 178 203 212 208 208 198 158 210 216 190 245 261 270 251 223 270 275 262 230 215 213 207 204 205 208 218 223 222
250 253 263 278 256 200 197 222 207 221 234 231 250 252 251 262 257 255 253 227 213 225 238 241 238 241 240 233 239 223 203 217 209 207 221 231 231 218 187 177 172 170 182 184 171 174 175 182 211 231 248 289 306 294 309 341 166 217 234 207 198 211 217 228 247 201 219 232 224 219 247 254 275 330 344 356 324 304 286 243 216 200 201 201 199 214 223 218
246 270 257 265 247 213 218 235 221 229 232 231 239 241 246 256 250 249 254 248 240 244 254 252 255 271 263 246 247 228 214 227 229 219 220 225 244 233 196 191 188 187 203 195 175 173 181 185 193 206 217 222 229 234 230 199 175 212 231 215 211 209 204 211 230 215 229 240 234 226 244 254 271 329 333 332 327 298 286 266 236 229 216 201 200 214 70 67
234 245 244 260 244 218 231 254 246 241 235 235 237 233 235 242 247 249 251 253 249 245 258 270 301 324 297 252 252 246 235 234 234 237 236 223 238 251 213 203 200 203 206 194 179 168 165 197 197 205 217 219 228 240 218 146 155 198 218 213 212 211 204 206 219 223 230 244 250 237 237 255 264 257 266 282 265 254 266 249 222 238 233 218 188 89 82 86
225 233 218 217 232 221 226 239 239 240 242 241 245 242 236 240 249 247 237 240 238 236 249 256 258 264 255 245 254 251 245 243 238 242 252 242 252 287 259 216 218 224 213 196 187 165 155 222 209 213 222 223 230 232 190 158 182 202 210 211 212 208 200 204 216 226 232 237 253 246 232 243 258 248 232 250 257 260 267 246 220 229 205 150 104 92 93 85
210 229 236 224 225 228 228 235 238 243 248 247 247 257 255 253 250 244 241 248 242 228 232 239 236 240 244 249 260 260 255 252 241 236 239 238 242 266 289 251 234 242 225 207 202 173 197 229 214 219 230 230 236 233 188 175 198 202 204 209 211 202 196 206 216 225 229 219 240 252 231 220 251 252 226 234 243 252 261 250 207 161 111 118 112 106 98 75
194 217 266 246 231 242 249 269 288 271 256 257 251 240 253 260 256 254 255 271 263 237 232 242 236 234 239 242 247 256 258 258 253 241 237 238 232 230 247 255 237 196 168 210 223 184 203 227 211 221 236 233 235 237 220 212 216 216 212 209 207 202 202 210 217 226 230 226 238 252 247 240 254 249 214 223 233 244 263 270 231 117 120 135 122 112 103 79
185 186 220 183 102 248 263 267 275 281 263 267 268 242 249 257 259 264 258 248 265 261 249 257 254 246 245 240 237 244 247 251 258 259 260 261 246 230 234 232 217 194 184 205 236 209 210 222 212 219 238 233 229 232 230 228 226 223 221 214 208 207 209 216 223 228 231 233 241 249 255 261 260 229 196 214 229 241 266 271 254 144 115 131 121 116 122 104
185 168 164 116 106 231 253 264 260 260 250 249 253 256 266 268 274 300 296 257 258 264 268 286 294 286 274 263 255 253 253 258 266 271 277 277 270 263 257 234 217 217 200 200 220 210 212 226 221 228 243 232 220 225 231 233 233 229 224 219 215 212 215 222 225 226 224 228 237 241 244 252 250 173 191 217 223 239 253 254 245 150 125 143 137 140 144 120
182 149 147 122 142 228 242 278 272 264 254 241 233 240 265 280 313 339 312 280 265 277 312 334 327 319 298 283 277 273 280 282 276 283 289 286 282 277 275 277 269 260 229 214 227 214 213 226 219 223 240 234 218 224 230 232 236 233 219 217 220 219 224 232 235 231 221 220 228 230 233 241 234 144 199 216 213 229 241 246 240 181 159 153 138 141 137 117